TimeCDT,TemperatureF,Dew PointF,Humidity,Sea Level PressureIn,VisibilityMPH,Wind Direction,Wind SpeedMPH,Gust SpeedMPH,PrecipitationIn,Events,Conditions,WindDirDegrees,DateUTC
12:15 AM,59.0,53.6,82,30.09,10.0,SE,3.5,-,N/A,,Clear,130,2013-04-07 05:15:00
12:35 AM,57.2,53.6,88,30.09,10.0,Calm,Calm,-,N/A,,Clear,0,2013-04-07 05:35:00
1:15 AM,55.4,51.8,88,30.08,10.0,Calm,Calm,-,N/A,,Clear,0,2013-04-07 06:15:00
1:35 AM,53.6,51.8,94,30.08,10.0,Calm,Calm,-,N/A,,Scattered Clouds,0,2013-04-07 06:35:00
1:55 AM,53.6,50.0,88,30.07,10.0,Calm,Calm,-,N/A,,Clear,0,2013-04-07 06:55:00
2:15 AM,51.8,50.0,94,30.07,10.0,Calm,Calm,-,N/A,,Clear,0,2013-04-07 07:15:00
2:35 AM,51.8,48.2,88,30.07,10.0,Calm,Calm,-,N/A,,Clear,0,2013-04-07 07:35:00
2:55 AM,50.0,48.2,94,30.06,10.0,Calm,Calm,-,N/A,,Clear,0,2013-04-07 07:55:00
3:15 AM,51.8,48.2,88,30.06,10.0,Calm,Calm,-,N/A,,Clear,0,2013-04-07 08:15:00
3:35 AM,53.6,50.0,88,30.05,10.0,Calm,Calm,-,N/A,,Clear,0,2013-04-07 08:35:00
3:55 AM,51.8,48.2,88,30.05,7.0,Calm,Calm,-,N/A,,Clear,0,2013-04-07 08:55:00
4:15 AM,50.0,48.2,94,30.06,10.0,Calm,Calm,-,N/A,,Clear,0,2013-04-07 09:15:00
4:35 AM,50.0,48.2,94,30.06,10.0,Calm,Calm,-,N/A,,Clear,0,2013-04-07 09:35:00
4:55 AM,50.0,48.2,94,30.06,10.0,Calm,Calm,-,N/A,,Clear,0,2013-04-07 09:55:00
5:15 AM,51.8,50.0,94,30.06,10.0,Calm,Calm,-,N/A,,Clear,0,2013-04-07 10:15:00
5:35 AM,51.8,50.0,94,30.06,10.0,Calm,Calm,-,N/A,,Clear,0,2013-04-07 10:35:00
5:55 AM,51.8,50.0,94,30.06,10.0,Calm,Calm,-,N/A,,Clear,0,2013-04-07 10:55:00
6:15 AM,51.8,50.0,94,30.07,10.0,Calm,Calm,-,N/A,,Clear,0,2013-04-07 11:15:00
6:35 AM,51.8,50.0,94,30.08,10.0,Calm,Calm,-,N/A,,Scattered Clouds,0,2013-04-07 11:35:00
6:55 AM,51.8,50.0,94,30.08,10.0,Calm,Calm,-,N/A,,Mostly Cloudy,0,2013-04-07 11:55:00
7:15 AM,55.4,51.8,88,30.10,10.0,Calm,Calm,-,N/A,,Mostly Cloudy,0,2013-04-07 12:15:00
7:35 AM,55.4,53.6,94,30.10,10.0,Calm,Calm,-,N/A,,Mostly Cloudy,0,2013-04-07 12:35:00
7:55 AM,57.2,53.6,88,30.10,10.0,Calm,Calm,-,N/A,,Mostly Cloudy,0,2013-04-07 12:55:00
8:15 AM,59.0,55.4,88,30.10,10.0,East,3.5,-,N/A,,Mostly Cloudy,100,2013-04-07 13:15:00
8:35 AM,62.6,57.2,82,30.10,10.0,ESE,4.6,-,N/A,,Scattered Clouds,110,2013-04-07 13:35:00
8:55 AM,62.6,57.2,82,30.11,10.0,ESE,4.6,-,N/A,,Mostly Cloudy,120,2013-04-07 13:55:00
9:15 AM,64.4,57.2,77,30.11,10.0,ESE,6.9,-,N/A,,Overcast,110,2013-04-07 14:15:00
9:35 AM,68.0,57.2,68,30.11,10.0,ESE,8.1,-,N/A,,Mostly Cloudy,120,2013-04-07 14:35:00
9:55 AM,69.8,57.2,64,30.10,10.0,ESE,11.5,-,N/A,,Scattered Clouds,120,2013-04-07 14:55:00
10:15 AM,71.6,57.2,60,30.11,10.0,SE,6.9,-,N/A,,Scattered Clouds,140,2013-04-07 15:15:00
10:35 AM,73.4,55.4,53,30.11,10.0,SE,11.5,-,N/A,,Mostly Cloudy,130,2013-04-07 15:35:00
10:55 AM,73.4,55.4,53,30.11,10.0,SE,11.5,-,N/A,,Overcast,140,2013-04-07 15:55:00
11:15 AM,75.2,53.6,47,30.11,10.0,SSE,9.2,-,N/A,,Overcast,150,2013-04-07 16:15:00
11:35 AM,73.4,51.8,47,30.11,10.0,SE,6.9,17.3,N/A,,Overcast,140,2013-04-07 16:35:00
11:55 AM,73.4,53.6,50,30.11,10.0,SSE,11.5,16.1,N/A,,Overcast,150,2013-04-07 16:55:00
12:15 PM,73.4,53.6,50,30.10,10.0,SSE,9.2,-,N/A,,Overcast,150,2013-04-07 17:15:00
12:35 PM,73.4,53.6,50,30.10,10.0,SSE,8.1,-,N/A,,Overcast,150,2013-04-07 17:35:00
12:55 PM,75.2,53.6,47,30.09,10.0,South,5.8,-,N/A,,Overcast,190,2013-04-07 17:55:00
1:15 PM,73.4,55.4,53,30.09,10.0,SSE,9.2,-,N/A,,Overcast,150,2013-04-07 18:15:00
1:35 PM,75.2,53.6,47,30.08,10.0,SSE,6.9,-,N/A,,Mostly Cloudy,160,2013-04-07 18:35:00
1:55 PM,75.2,53.6,47,30.07,10.0,SSE,11.5,-,N/A,,Mostly Cloudy,160,2013-04-07 18:55:00
2:15 PM,77.0,55.4,47,30.06,10.0,South,8.1,-,N/A,,Mostly Cloudy,170,2013-04-07 19:15:00
2:35 PM,75.2,55.4,50,30.05,10.0,South,9.2,16.1,N/A,,Mostly Cloudy,180,2013-04-07 19:35:00
2:55 PM,77.0,53.6,44,30.05,10.0,SSE,11.5,18.4,N/A,,Mostly Cloudy,160,2013-04-07 19:55:00
3:15 PM,77.0,53.6,44,30.04,10.0,South,9.2,16.1,N/A,,Scattered Clouds,170,2013-04-07 20:15:00
3:35 PM,77.0,55.4,47,30.03,10.0,SSE,12.7,18.4,N/A,,Mostly Cloudy,160,2013-04-07 20:35:00
3:55 PM,77.0,55.4,47,30.03,10.0,SE,13.8,19.6,N/A,,Scattered Clouds,130,2013-04-07 20:55:00
4:15 PM,77.0,55.4,47,30.03,10.0,SE,12.7,-,N/A,,Scattered Clouds,140,2013-04-07 21:15:00
4:35 PM,77.0,55.4,47,30.03,10.0,SE,11.5,16.1,N/A,,Mostly Cloudy,140,2013-04-07 21:35:00
4:55 PM,75.2,55.4,50,30.02,10.0,SE,12.7,-,N/A,,Overcast,140,2013-04-07 21:55:00
5:15 PM,75.2,55.4,50,30.02,10.0,SE,12.7,-,N/A,,Mostly Cloudy,130,2013-04-07 22:15:00
5:35 PM,75.2,55.4,50,30.02,10.0,ESE,12.7,17.3,N/A,,Scattered Clouds,120,2013-04-07 22:35:00
5:55 PM,75.2,55.4,50,30.02,10.0,SE,13.8,17.3,N/A,,Clear,130,2013-04-07 22:55:00
6:15 PM,73.4,57.2,57,30.02,10.0,SE,11.5,18.4,N/A,,Clear,130,2013-04-07 23:15:00
6:35 PM,71.6,57.2,60,30.01,10.0,SE,11.5,-,N/A,,Clear,140,2013-04-07 23:35:00
6:55 PM,71.6,57.2,60,30.01,10.0,SE,12.7,16.1,N/A,,Clear,130,2013-04-07 23:55:00
7:15 PM,69.8,57.2,64,30.01,10.0,SE,10.4,16.1,N/A,,Clear,130,2013-04-08 00:15:00
7:35 PM,68.0,59.0,73,30.00,10.0,ESE,9.2,-,N/A,,Clear,120,2013-04-08 00:35:00
7:55 PM,68.0,59.0,73,30.01,10.0,SE,9.2,-,N/A,,Clear,130,2013-04-08 00:55:00
8:15 PM,68.0,59.0,73,30.01,10.0,SE,9.2,-,N/A,,Scattered Clouds,130,2013-04-08 01:15:00
8:35 PM,68.0,59.0,73,30.02,10.0,SE,8.1,-,N/A,,Mostly Cloudy,140,2013-04-08 01:35:00
8:55 PM,68.0,60.8,78,30.02,10.0,SE,10.4,-,N/A,,Mostly Cloudy,140,2013-04-08 01:55:00
9:15 PM,66.2,60.8,83,30.02,10.0,SE,9.2,-,N/A,,Scattered Clouds,140,2013-04-08 02:15:00
9:35 PM,66.2,60.8,83,30.03,10.0,SE,8.1,-,N/A,,Clear,140,2013-04-08 02:35:00
9:55 PM,64.4,60.8,88,30.03,10.0,SE,6.9,-,N/A,,Clear,130,2013-04-08 02:55:00
10:15 PM,64.4,59.0,83,30.03,10.0,SE,3.5,-,N/A,,Clear,140,2013-04-08 03:15:00
10:35 PM,64.4,59.0,83,30.03,10.0,SSE,3.5,-,N/A,,Clear,150,2013-04-08 03:35:00
10:55 PM,64.4,59.0,83,30.02,10.0,SE,4.6,-,N/A,,Clear,140,2013-04-08 03:55:00
11:15 PM,64.4,59.0,83,30.02,10.0,SE,3.5,-,N/A,,Scattered Clouds,130,2013-04-08 04:15:00
11:35 PM,62.6,59.0,88,30.02,10.0,ESE,4.6,-,N/A,,Scattered Clouds,120,2013-04-08 04:35:00
11:55 PM,62.6,59.0,88,30.01,10.0,SE,4.6,-,N/A,,Clear,130,2013-04-08 04:55:00